Decherd, TN

9:12 AM CST on December 05, 2016 (GMT -0600)
Winchester Municipal

Weather History for KBGF - February, 2013

Change the Weather History Date:

Tuesday, February 5, 2013

  Actual Average (KTHA) Record (KTHA)
Temperature  
Mean Temperature 47 °F -  
Max Temperature 59 °F 47 °F 60 °F (2013)
Min Temperature 35 °F 27 °F 19 °F (2015)
Degree Days  
Heating Degree Days 18    
Moisture  
Dew Point 40 °F    
Average Humidity 77    
Maximum Humidity 100    
Minimum Humidity 53    
Precipitation  
Precipitation 0.00 in - - ()
Sea Level Pressure  
Sea Level Pressure 29.99 in    
Wind  
Wind Speed 3 mph (SW)    
Max Wind Speed 8 mph    
Max Gust Speed -    
Visibility 10 miles    
Events      
Averages and records for this station are not official NWS values.
T = Trace of Precipitation, MM = Missing Value Source: NWS Daily Summary

Daily Weather History Graph

Daily Weather History Graph

Search for Another Location

Airport or City:

Trip Planner

Search our weather history database for the weather conditions in past years. The results will help you decide how hot, cold, wet, or windy it might be!

Date:

Astronomy

Feb. 05, 2013 Rise Set
Actual Time 7:39 AM EST 6:17 PM EST
Civil Twilight 7:13 AM EST 6:43 PM EST
Nautical Twilight 6:43 AM EST 7:13 PM EST
Astronomical Twilight 6:13 AM EST 7:43 PM EST
Moon 3:17 AM EST 1:38 PM EST
Length of Visible Light 11h 30m
Length of Day
10h 37m
Waning Crescent, 27% of the Moon is Illuminated
Feb 5
Waning Crescent
Feb 10
New
Feb 17
First Quarter
Feb 25
Full
Mar 4
Last Quarter

Hourly Weather History & Observations

Time (EST) Temp. Windchill Dew Point Humidity Pressure Visibility Wind Dir Wind Speed Gust Speed Precip Events Conditions
12:15 AM 44.6 °F 40.7 °F 28.4 °F 53% 29.96 in 10.0 mi SSE 6.9 mph - N/A   Overcast
12:35 AM 44.6 °F 42.2 °F 30.2 °F 57% 29.96 in 10.0 mi SSE 4.6 mph - N/A   Overcast
12:55 AM 44.6 °F 43.1 °F 30.2 °F 57% 29.96 in 10.0 mi SSE 3.5 mph - N/A   Overcast
1:35 AM 44.6 °F - 32.0 °F 61% 29.96 in 10.0 mi Calm Calm - N/A   Overcast
1:55 AM 44.6 °F - 32.0 °F 61% 29.95 in 10.0 mi Calm Calm - N/A   Overcast
2:15 AM 42.8 °F 41.1 °F 35.6 °F 76% 29.95 in 10.0 mi South 3.5 mph - N/A   Overcast
2:35 AM 44.6 °F - 35.6 °F 71% 29.96 in 9.0 mi Calm Calm - N/A   Overcast
2:55 AM 42.8 °F - 37.4 °F 81% 29.96 in 10.0 mi Calm Calm - N/A   Overcast
3:15 AM 42.8 °F - 37.4 °F 81% 29.96 in 9.0 mi Calm Calm - N/A   Overcast
3:35 AM 41.0 °F - 37.4 °F 87% 29.96 in 7.0 mi Calm Calm - N/A   Overcast
3:55 AM 41.0 °F - 39.2 °F 93% 29.96 in 7.0 mi Calm Calm - N/A   Overcast
4:15 AM 41.0 °F - 39.2 °F 93% 29.96 in 10.0 mi Calm Calm - N/A   Overcast
4:35 AM 41.0 °F - 39.2 °F 93% 29.95 in 10.0 mi Calm Calm - N/A   Overcast
4:55 AM 41.0 °F - 39.2 °F 93% 29.95 in 10.0 mi Calm Calm - N/A   Overcast
5:15 AM 39.2 °F - 39.2 °F 100% 29.95 in 10.0 mi Calm Calm - N/A   Overcast
5:35 AM 41.0 °F - 39.2 °F 93% 29.95 in 10.0 mi Calm Calm - N/A   Overcast
5:55 AM 41.0 °F 39.0 °F 39.2 °F 93% 29.96 in 10.0 mi SSE 3.5 mph - N/A   Overcast
6:15 AM 42.8 °F - 39.2 °F 87% 29.96 in 10.0 mi Calm Calm - N/A   Overcast
6:35 AM 42.8 °F - 39.2 °F 87% 29.97 in 10.0 mi Calm Calm - N/A   Overcast
6:55 AM 42.8 °F - 39.2 °F 87% 29.98 in 10.0 mi Calm Calm - N/A   Overcast
7:15 AM 42.8 °F - 41.0 °F 93% 29.98 in 10.0 mi Calm Calm - N/A   Overcast
7:35 AM 42.8 °F - 39.2 °F 87% 29.99 in 10.0 mi Calm Calm - N/A   Overcast
7:55 AM 42.8 °F - 39.2 °F 87% 30.00 in 10.0 mi Calm Calm - N/A   Overcast
8:15 AM 42.8 °F - 39.2 °F 87% 30.00 in 10.0 mi Calm Calm - N/A   Overcast
8:35 AM 42.8 °F - 39.2 °F 87% 30.01 in 10.0 mi Calm Calm - N/A   Overcast
8:55 AM 42.8 °F - 41.0 °F 93% 30.01 in 10.0 mi Calm Calm - N/A   Overcast
9:15 AM 44.6 °F - 39.2 °F 81% 30.02 in 10.0 mi Calm Calm - N/A   Overcast
9:35 AM 44.6 °F - 39.2 °F 81% 30.02 in 10.0 mi Calm Calm - N/A   Overcast
9:55 AM 46.4 °F - 42.8 °F 87% 30.03 in 10.0 mi Calm Calm - N/A   Overcast
10:15 AM 46.4 °F 45.2 °F 42.8 °F 87% 30.03 in 10.0 mi SSW 3.5 mph - N/A   Overcast
10:35 AM 48.2 °F - 42.8 °F 82% 30.03 in 10.0 mi SW 4.6 mph - N/A   Overcast
10:55 AM 48.2 °F - 42.8 °F 82% 30.03 in 10.0 mi SSW 6.9 mph - N/A   Overcast
11:15 AM 50.0 °F - 42.8 °F 76% 30.03 in 10.0 mi Variable 5.8 mph - N/A   Overcast
11:35 AM 51.8 °F - 44.6 °F 76% 30.03 in 10.0 mi SW 4.6 mph - N/A   Mostly Cloudy
11:55 AM 51.8 °F - 42.8 °F 71% 30.03 in 10.0 mi SW 4.6 mph - N/A   Scattered Clouds
12:15 PM 53.6 °F - 44.6 °F 72% 30.02 in 10.0 mi West 8.1 mph - N/A   Partly Cloudy
12:35 PM 53.6 °F - 44.6 °F 72% 30.01 in 10.0 mi Variable 6.9 mph - N/A   Clear
12:55 PM 55.4 °F - 44.6 °F 67% 30.00 in 10.0 mi Variable 5.8 mph - N/A   Clear
1:15 PM 55.4 °F - 42.8 °F 63% 29.99 in 10.0 mi SW 5.8 mph - N/A   Clear
1:35 PM 55.4 °F - 44.6 °F 67% 29.99 in 10.0 mi Variable 6.9 mph - N/A   Clear
1:55 PM 57.2 °F - 42.8 °F 59% 29.98 in 10.0 mi WSW 6.9 mph - N/A   Clear
2:15 PM 57.2 °F - 44.6 °F 63% 29.98 in 10.0 mi WSW 6.9 mph - N/A   Partly Cloudy
2:35 PM 57.2 °F - 42.8 °F 59% 29.97 in 10.0 mi WSW 6.9 mph - N/A   Clear
2:55 PM 57.2 °F - 42.8 °F 59% 29.96 in 10.0 mi WSW 6.9 mph - N/A   Clear
3:15 PM 57.2 °F - 42.8 °F 59% 29.96 in 10.0 mi SW 6.9 mph - N/A   Clear
3:35 PM 57.2 °F - 41.0 °F 55% 29.96 in 10.0 mi West 8.1 mph - N/A   Clear
3:55 PM 59.0 °F - 42.8 °F 55% 29.96 in 10.0 mi West 6.9 mph - N/A   Clear
4:15 PM 59.0 °F - 42.8 °F 55% 29.96 in 10.0 mi West 8.1 mph - N/A   Clear
4:35 PM 59.0 °F - 42.8 °F 55% 29.96 in 10.0 mi West 5.8 mph - N/A   Clear
4:55 PM 59.0 °F - 42.8 °F 55% 29.96 in 10.0 mi West 5.8 mph - N/A   Clear
5:15 PM 59.0 °F - 42.8 °F 55% 29.96 in 10.0 mi WSW 6.9 mph - N/A   Clear
5:35 PM 57.2 °F - 42.8 °F 59% 29.97 in 10.0 mi WSW 6.9 mph - N/A   Clear
5:55 PM 57.2 °F - 42.8 °F 59% 29.97 in 10.0 mi WSW 6.9 mph - N/A   Clear
6:15 PM 55.4 °F - 42.8 °F 63% 29.97 in 10.0 mi WSW 3.5 mph - N/A   Clear
6:35 PM 55.4 °F - 41.0 °F 58% 29.98 in 10.0 mi WSW 3.5 mph - N/A   Clear
6:55 PM 53.6 °F - 41.0 °F 62% 29.99 in 10.0 mi Calm Calm - N/A   Clear
7:15 PM 46.4 °F - 39.2 °F 76% 29.99 in 10.0 mi Calm Calm - N/A   Clear
7:35 PM 46.4 °F 45.2 °F 39.2 °F 76% 29.99 in 10.0 mi South 3.5 mph - N/A   Clear
7:55 PM 44.6 °F 43.1 °F 39.2 °F 81% 30.00 in 10.0 mi SE 3.5 mph - N/A   Clear
8:15 PM 44.6 °F - 39.2 °F 81% 30.01 in 10.0 mi Calm Calm - N/A   Clear
8:35 PM 42.8 °F - 39.2 °F 87% 30.01 in 10.0 mi Calm Calm - N/A   Clear
8:55 PM 41.0 °F - 37.4 °F 87% 30.01 in 10.0 mi Calm Calm - N/A   Clear
9:15 PM 39.2 °F - 37.4 °F 93% 30.02 in 10.0 mi Calm Calm - N/A   Clear
9:35 PM 41.0 °F - 39.2 °F 93% 30.03 in 10.0 mi Calm Calm - N/A   Clear
10:15 PM 39.2 °F - 37.4 °F 93% 30.04 in 10.0 mi Calm Calm - N/A   Clear
10:35 PM 37.4 °F - 37.4 °F 100% 30.05 in 10.0 mi Calm Calm - N/A   Clear
10:55 PM 37.4 °F - 37.4 °F 100% 30.05 in 10.0 mi Calm Calm - N/A   Clear
11:15 PM 37.4 °F - 35.6 °F 93% 30.05 in 10.0 mi Calm Calm - N/A   Clear
11:35 PM 35.6 °F - 35.6 °F 100% 30.06 in 10.0 mi Calm Calm - N/A   Clear
11:55 PM 37.4 °F - 37.4 °F 100% 30.06 in 2.5 mi Calm Calm - N/A   Clear